Location: West Cummington
(42.4920°N, 72.9680°W)
Time: 16:58:01
(UTC-04:00)

Cosmos 1703 Rocket - Visible Passes

Search period start: 23 April 2018 00:00
Search period end: 03 May 2018 00:00
Orbit: 605 x 634 km, 82.5° (Epoch: 23 April)

Date Brightness Start Highest point End Pass type
(mag) Time Alt. Az. Time Alt. Az. Time Alt. Az.
23 Apr 6.5 00:55:51 10° NW 00:55:51 10° NW 00:55:55 10° NW visible
23 Apr 5.5 23:35:51 27° N 23:35:51 27° N 23:37:54 10° N visible
24 Apr 5.8 22:15:50 14° NE 22:15:50 14° NE 22:16:44 10° NE visible
24 Apr 5.6 23:52:58 25° NNW 23:52:58 25° NNW 23:55:12 10° N visible
25 Apr 5.2 22:32:56 23° NE 22:32:56 23° NE 22:34:56 10° NNE visible
26 Apr 6.0 00:10:04 18° NW 00:10:04 18° NW 00:12:07 10° NNW visible
26 Apr 4.7 22:50:00 37° NNE 22:50:00 37° NNE 22:52:43 10° NNE visible
27 Apr 6.4 00:27:08 11° WNW 00:27:08 11° WNW 00:27:52 10° NW visible
27 Apr 5.8 21:29:55 10° ENE 21:29:55 10° ENE 21:30:03 10° ENE visible
27 Apr 4.5 23:07:03 44° NNW 23:07:03 44° NNW 23:10:15 10° N visible
28 Apr 5.2 21:46:55 19° ENE 21:46:55 19° ENE 21:49:12 10° NE visible
28 Apr 5.1 23:24:04 31° WNW 23:24:04 31° WNW 23:27:31 10° NNW visible
29 Apr 4.3 22:03:54 36° ENE 22:03:54 36° ENE 22:07:20 10° NNE visible
29 Apr 5.8 23:41:02 18° WNW 23:41:20 18° WNW 23:44:22 10° NNW visible
30 Apr 3.4 22:20:50 75° E 22:20:50 75° E 22:25:06 10° NNE visible
01 May 5.5 21:00:36 12° E 21:01:00 12° E 21:02:45 10° ENE visible
01 May 4.0 22:37:44 51° WSW 22:38:18 56° W 22:42:36 10° N visible
02 May 4.8 21:17:28 21° ESE 21:18:16 23° E 21:21:40 10° NE visible
02 May 5.2 22:54:35 25° WSW 22:55:58 30° WNW 22:59:49 10° NNW visible
